Location: Squirrel Cove
(50.1074°N, 124.9139°W)
Time: 22:01:48
(UTC-08:00)

ISS - Pass Details

Date: 05 December 2022
Orbit: 412 x 419 km, 51.6° (Epoch: 02 February)

Event Time Altitude Azimuth Distance (km) Brightness Sun altitude
Rises 17:51:47 0° 286° (WNW) 2,350 1.0 -14.2°
Reaches altitude 10° 17:54:04 10° 273° (W) 1,485 0.2 -14.5°
Maximum altitude 17:56:54 26° 215° (SW) 852 -1.6 -15.0°
Drops below altitude 10° 17:59:44 10° 156° (SSE) 1,481 -1.1 -15.4°
Enters shadow 18:01:19 - 146° (SSE) 2,066 -0.4 -15.6°
